TimePDT,TemperatureF,Dew PointF,Humidity,Sea Level PressureIn,VisibilityMPH,Wind Direction,Wind SpeedMPH,Gust SpeedMPH,PrecipitationIn,Events,Conditions,WindDirDegrees,DateUTC
12:56 AM,50.9,50.9,100,30.13,10.0,Calm,Calm,-,N/A,,Clear,0,2012-10-06 07:56:00
1:56 AM,50.0,50.0,100,30.13,10.0,Calm,Calm,-,N/A,,Clear,0,2012-10-06 08:56:00
2:56 AM,50.0,50.0,100,30.12,10.0,Calm,Calm,-,N/A,,Clear,0,2012-10-06 09:56:00
3:56 AM,48.9,48.9,100,30.10,10.0,Calm,Calm,-,N/A,,Clear,0,2012-10-06 10:56:00
5:56 AM,47.8,47.8,100,30.10,10.0,Calm,Calm,-,N/A,,Clear,0,2012-10-06 12:56:00
6:56 AM,47.8,47.8,100,30.10,10.0,Calm,Calm,-,N/A,,Clear,0,2012-10-06 13:56:00
7:25 AM,48.2,48.2,100,30.10,10.0,Calm,Calm,-,N/A,,Mostly Cloudy,0,2012-10-06 14:25:00
7:56 AM,48.9,48.9,100,30.11,10.0,Calm,Calm,-,N/A,,Mostly Cloudy,0,2012-10-06 14:56:00
8:09 AM,48.2,48.2,100,30.10,10.0,Calm,Calm,-,N/A,,Scattered Clouds,0,2012-10-06 15:09:00
8:56 AM,50.9,50.9,100,30.11,10.0,Calm,Calm,-,N/A,,Clear,0,2012-10-06 15:56:00
9:56 AM,57.9,54.0,87,30.10,10.0,Calm,Calm,-,N/A,,Clear,0,2012-10-06 16:56:00
10:56 AM,59.0,52.9,80,30.08,10.0,WNW,6.9,-,N/A,,Clear,300,2012-10-06 17:56:00
11:56 AM,57.9,50.9,77,30.08,10.0,West,6.9,-,N/A,,Clear,280,2012-10-06 18:56:00
1:56 PM,57.9,52.0,81,30.07,10.0,WNW,5.8,-,N/A,,Clear,290,2012-10-06 20:56:00
4:56 PM,57.9,50.9,77,30.05,10.0,Variable,4.6,-,N/A,,Clear,0,2012-10-06 23:56:00
5:56 PM,55.9,50.9,83,30.04,10.0,Calm,Calm,-,N/A,,Clear,0,2012-10-07 00:56:00
6:56 PM,52.9,52.0,97,30.04,10.0,Calm,Calm,-,N/A,,Clear,0,2012-10-07 01:56:00
7:56 PM,52.0,52.0,100,30.04,10.0,ESE,4.6,-,0.00,Rain,Light Rain,120,2012-10-07 02:56:00
8:46 PM,51.8,51.8,100,30.04,9.0,Variable,5.8,-,0.00,Rain,Light Rain,0,2012-10-07 03:46:00
8:56 PM,50.9,50.9,100,30.05,7.0,SE,4.6,-,0.00,Rain,Light Rain,130,2012-10-07 03:56:00
10:08 PM,51.8,51.8,100,30.03,2.5,SE,3.5,-,N/A,,Overcast,140,2012-10-07 05:08:00
10:15 PM,51.8,51.8,100,30.03,4.0,Calm,Calm,-,N/A,,Overcast,0,2012-10-07 05:15:00
10:26 PM,51.8,51.8,100,30.03,1.8,SE,4.6,-,N/A,,Overcast,130,2012-10-07 05:26:00
10:29 PM,51.8,51.8,100,30.03,1.0,SE,4.6,-,N/A,,Overcast,130,2012-10-07 05:29:00
10:37 PM,50.0,50.0,100,30.03,0.8,SE,4.6,-,N/A,,Overcast,140,2012-10-07 05:37:00
10:44 PM,50.0,50.0,100,30.03,1.2,SE,5.8,-,N/A,,Overcast,140,2012-10-07 05:44:00
10:56 PM,50.0,50.0,100,30.04,1.8,SE,4.6,-,N/A,,Overcast,130,2012-10-07 05:56:00
11:02 PM,50.0,50.0,100,30.03,1.0,SE,4.6,-,N/A,,Overcast,130,2012-10-07 06:02:00
11:23 PM,48.2,48.2,100,30.03,1.2,SE,3.5,-,N/A,,Overcast,130,2012-10-07 06:23:00
11:30 PM,48.2,48.2,100,30.03,2.0,Calm,Calm,-,N/A,,Overcast,0,2012-10-07 06:30:00
11:38 PM,48.2,48.2,100,30.02,9.0,Calm,Calm,-,N/A,,Overcast,0,2012-10-07 06:38:00